#timestamp,LO_Frequency,Hit,StdDev 
1570892415.4,286046996.8,N
1570892435.2,286046995.6,N
1570892455.0,286046997.6,N
1570892455.9,286046997.6,N
1570892475.8,286046995.1,N
1570892495.6,286046996.2,N
1570892515.5,286046995.7,N
1570892535.3,286046993.7,Y
1570892555.1,286046996.2,P
1570892575.9,286046993.3,P
1570892595.7,286046995.0,N
1570892615.5,286046995.6,N
1570892635.4,286046995.4,N
1570892655.2,286046995.8,N
1570892675.1,286046995.9,N
1570892676.0,286046995.9,Y
1570892695.8,286047000.0,P
1570892715.6,286047002.0,N
1570892735.5,286047000.5,N
1570892755.3,286047000.0,N
1570892775.2,286046998.5,N
1570892795.9,286046998.1,N
1570892815.7,286046998.1,N
1570892835.6,286047000.9,N
1570892855.4,286047000.6,N
1570892875.2,286047000.4,N
1570892895.1,286047000.3,N
1570892896.0,286047000.3,N
1570892915.8,286046996.6,N
1570892935.7,286046997.3,N
1570892955.5,286046995.4,N
1570892975.3,286046999.6,N
1570892995.2,286046996.5,N
1570893015.9,286046997.1,N
1570893035.7,286046995.0,N
1570893055.6,286046999.2,N
1570893075.4,286046999.2,N
1570893095.3,286046997.2,N
1570893115.1,286046997.4,N
1570893116.0,286046997.4,N
1570893135.8,286046996.7,N
1570893155.7,286046999.1,N
1570893175.5,286046996.5,N
1570893195.3,286047002.3,N
1570893215.2,286047000.5,N
1570893235.0,286047000.0,N
1570893235.9,286047000.0,N
1570893255.8,286047000.7,N
1570893275.6,286046999.9,N
1570893295.4,286046998.4,N
1570893315.3,286046999.3,N
1570893335.1,286046998.5,N
1570893355.9,286046999.0,N
1570893375.7,286046999.3,N
1570893395.5,286046998.7,N
1570893415.4,286046998.6,N
1570893435.2,286047001.2,N
1570893455.0,286046999.3,N
1570893455.9,286046999.3,N
1570893475.8,286046999.5,N
1570893495.6,286046997.1,N
1570893515.5,286046996.6,N
1570893535.3,286046999.1,N
1570893555.1,286046998.7,N
1570893575.9,286047001.2,N
1570893595.7,286046998.5,N
1570893615.5,286047000.3,N
1570893635.4,286047001.8,N
1570893655.2,286047001.9,N
1570893675.1,286047001.9,N
1570893676.0,286047001.9,N
1570893695.8,286047001.6,N
1570893715.6,286047003.3,N
1570893735.5,286047003.3,N
1570893755.3,286047004.4,N
1570893775.1,286047002.0,N
1570893795.9,286047002.6,N
1570893815.7,286047003.9,N
1570893835.6,286047005.6,N
1570893855.4,286047005.4,N
1570893875.2,286047005.1,N
1570893895.1,286047006.7,N
1570893896.0,286047006.7,N
1570893915.8,286047007.1,N
1570893935.7,286047005.1,N
1570893955.5,286047004.7,N
1570893975.3,286047007.3,N
1570893995.2,286047007.6,N
1570894015.0,286047007.3,N
1570894015.9,286047007.3,N
1570894035.7,286047007.1,N
1570894055.6,286047007.3,N
1570894075.4,286047008.9,Y
1570894095.3,286047005.2,P
1570894115.1,286047006.9,P
1570894135.8,286047005.4,P
1570894155.7,286047005.5,Y
1570894175.5,286046998.2,P
1570894195.4,286046998.2,N
1570894215.2,286046998.1,N
1570894235.0,286047000.5,N
1570894235.9,286047000.5,N
1570894255.8,286046999.8,N
1570894275.6,286047002.4,N
1570894295.4,286047000.6,N
1570894315.3,286046998.2,N
1570894335.1,286047000.5,N
1570894355.9,286046999.7,N
1570894375.7,286047000.2,N
1570894395.5,286047001.5,N
1570894415.4,286047004.1,N
1570894435.2,286047001.3,N
1570894455.0,286047004.3,N
1570894455.9,286047004.3,N
1570894475.8,286047003.8,N
1570894495.6,286047007.2,Y
1570894515.5,286047005.3,P
1570894535.3,286047003.4,N
1570894555.1,286047003.0,N
1570894575.9,286047006.8,Y
1570894595.7,286047003.6,P
1570894615.6,286047003.3,P
1570894635.4,286047002.9,P
1570894655.2,286047004.3,Y
1570894675.1,286047004.0,P
1570894676.0,286047004.0,P
1570894695.8,286047004.4,P
1570894715.7,286047011.9,Y
1570894735.5,286046998.4,P
1570894755.3,286046999.3,N
1570894775.2,286046999.2,N
1570894795.0,286046999.6,N
1570894795.9,286046999.6,N
1570894815.7,286046996.6,N
1570894835.6,286046998.5,N
1570894855.4,286047000.9,N
1570894875.3,286047000.9,N
1570894895.1,286047000.8,N
1570894896.0,286047000.8,N
1570894915.8,286046998.8,N
1570894935.7,286046999.2,N
1570894955.5,286047000.9,N
1570894975.3,286047002.0,N
1570894995.2,286047001.3,N
1570895015.0,286047001.6,N
1570895015.9,286047001.6,N
1570895035.8,286047003.5,N
1570895055.6,286047003.0,N
1570895075.4,286047003.4,N
1570895095.3,286047003.8,N
1570895115.1,286047004.7,N
1570895135.9,286047005.4,N
1570895155.7,286047005.3,N
1570895175.5,286047004.9,N
1570895195.4,286047006.5,N
1570895215.2,286047008.4,Y
1570895235.0,286047002.9,P
1570895235.9,286047002.9,P
1570895255.8,286047002.9,P
1570895275.6,286047003.5,Y
1570895295.5,286047002.7,P
1570895315.3,286047002.1,P
1570895335.1,286047004.2,P
1570895355.9,286047005.5,Y
1570895375.7,286047001.6,P
1570895395.6,286046999.7,N
1570895415.4,286047002.2,N
1570895435.2,286047002.3,N
1570895455.1,286047001.5,N
1570895456.0,286047001.5,N
1570895475.8,286047002.3,N
1570895495.7,286047004.0,Y
1570895515.5,286047004.0,P
1570895535.3,286047004.3,P
1570895555.2,286047002.5,N
1570895575.0,286047004.0,Y
1570895575.9,286047004.0,P
1570895595.7,286047000.1,N
1570895615.6,286047000.6,N
1570895635.4,286047001.0,N
1570895655.3,286047000.2,N
1570895675.1,286046999.8,N
1570895676.0,286046999.8,N
1570895695.8,286047000.4,N
1570895715.7,286047001.3,N
1570895735.5,286047006.0,Y
1570895755.4,286047003.0,P
1570895775.2,286047004.1,P
1570895795.0,286047006.0,P
1570895795.9,286047006.0,Y
1570895815.8,286047001.4,P
1570895835.6,286047002.2,N
1570895855.5,286047004.0,P
1570895875.3,286047002.6,N
1570895895.1,286047002.2,N
1570895915.9,286047002.5,N
1570895935.7,286047000.1,N
1570895955.5,286047002.0,N
1570895975.4,286047003.9,Y
1570895995.2,286047000.4,P
